Other Public Products
Issued by NWS Charleston, SC

Current Version | Previous Version | Graphics & Text | Print | Product List | Glossary On
Versions: 1 2 3 4 5 6 7 8 9 10 11 12 13 14 15 16 17 18 19 20 21 22 23 24 25 26 27 28 29 30 31 32 33 34 35 36 37 38 39 40 41 42 43 44 45 46 47 48 49 50
533 FPUS82 KCHS 251127 OPUCHS TEST...KCHS/KSAV Gateway Observations...TEST National Weather Service Charleston SC 700 AM EDT FRI MAY 25 2018 NOTE: "fair" indicates few or no clouds below 12,000 feet with no significant weather and/or obstructions to visibility. SCZ050-WAZ558-NCZ071-TXZ119-213-PAZ071-DCZ001-FLZ074-172-MI076- NYZ176-178-MAZ016-IL014-TNZ027-NJZ106-GAZ044-MD014-251200- ...Gateway Observations for Charleston International... CITY SKY/WX TMP DP RH WIND PRES REMARKS Chas Airport FAIR 73 72 96 E5 30.09R Seattle PTCLDY 53 46 77 N3 30.03F Charlotte MOCLDY 71 69 93 SE8 30.13R Dallas DFW PTCLDY 75 69 81 S9 29.94F Dallas Love PTCLDY 78 69 73 SW6 29.95F Philladelphia FAIR 63 60 90 SW8 30.10R Wash National FAIR 66 61 84 S6 30.11S Baltimore FAIR 63 60 90 SW3 30.09F Miami CLOUDY 77 75 93 SE9 29.99R Detroit MOCLDY 60 51 72 S3 30.01F Newark FAIR 64 54 69 SW6 30.06S Laguardia FAIR 70 51 51 SW7 30.04F J F K FAIR 63 58 83 SW8 30.07S Boston Logan FAIR 62 48 60 SW14 29.95F Ft. Lauderdale MOCLDY 77 75 94 SE7 29.98R Chicago O`Hare FAIR 69 53 56 S5 29.95F Chicago Midway FAIR 68 53 58 SW7 29.96S Houston Bush FAIR 72 71 97 NW3 29.96F Houston Hobby FAIR 72 72 100 CALM 29.95F Nashville MOCLDY 67 64 90 CALM 30.03R Atlanta CLOUDY 71 67 87 E8 30.07R $$ GAZ044-118-TXZ119-213-NCZ071-DCZ001-MDZ014-506-PAZ021-071-NJZ106- NYZ176-178-MAZ106-OHZ011-021-055-MIZ076-KYZ091-ILZ014-INZ047- MNZ060-ONZ431-251200- ...Gateway Observations for Savannah International... CITY SKY/WX TMP DP RH WIND PRES REMARKS Savannah Arpt CLOUDY 74 73 97 E3 30.08R Atlanta CLOUDY 71 67 87 E8 30.07R Charlotte MOCLDY 71 69 93 SE8 30.13R Dallas DFW PTCLDY 75 69 81 S9 29.94F Houston Bush FAIR 72 71 97 NW3 29.96F Wash National FAIR 66 61 84 S6 30.11S Wash Dulles FAIR 61 58 90 CALM 30.10S Baltimore FAIR 63 60 90 SW3 30.09F Philadelphia FAIR 63 60 90 SW8 30.10R Newark FAIR 64 54 69 SW6 30.06S Laguardia FAIR 70 51 51 SW7 30.04F J F K FAIR 63 58 83 SW8 30.07S Boston FAIR 62 48 60 SW14 29.95F Pittsburg FAIR 57 53 86 CALM 30.06S Akron FAIR 60 51 72 CALM 30.06S Cleveland FAIR 60 51 72 S5 30.05S Cincinnati FAIR 60 56 86 CALM 30.04R Columbus FAIR 59 57 96 MISG 30.04F Detroit MOCLDY 60 51 72 S3 30.01F Chicago O`Hare FAIR 69 53 56 S5 29.95F Minneapolis CLOUDY 67 65 93 SE9 29.83R Indianapolis FAIR 64 56 75 CALM 30.02S Toronto Canada PTSUNNY 64 48 55 W9 29.97S $$

USA.gov is the U.S. government's official web portal to all federal, state and local government web resources and services.